Location: Prague
(50.0830°N, 14.4670°E)
Time: 09:49:49
(UTC+01:00)

STARLINK-1617 - Pass Details

Date: 21 January 2021
Orbit: 545 x 549 km, 53.1° (Epoch: 25 February)

Event Time Altitude Azimuth Distance (km) Brightness Sun altitude
Exits shadow 04:14:24 16° 98° (E) 1,470 6.4 -34.1°
Drops below altitude 10° 04:15:37 10° 85° (E) 1,819 7.1 -33.9°
Sets 04:18:11 0° 70° (ENE) 2,716 8.2 -33.5°
